Location: Wellington
(41.3000°S, 174.8000°E)
Time: 02:33:05
(UTC+12:00)

ISS - Visible Passes

Search period start: 23 September 2018 00:00
Search period end: 03 October 2018 01:00
Orbit: 403 x 408 km, 51.6° (Epoch: 22 September)

Date Brightness Start Highest point End Pass type
(mag) Time Alt. Az. Time Alt. Az. Time Alt. Az.
27 Sep -1.5 05:19:35 10° N 05:22:13 22° NE 05:24:52 10° E visible
28 Sep -0.9 04:29:13 10° NNE 04:30:29 12° NE 04:31:46 10° ENE visible
29 Sep -3.2 05:11:23 10° NW 05:14:37 54° NE 05:17:53 10° ESE visible
30 Sep -2.1 05:21:33 22° N 05:22:45 28° NE 05:25:40 10° ESE visible
01 Oct -0.9 04:31:52 14° ENE 04:31:52 14° ENE 04:32:59 10° E visible
01 Oct -3.7 06:04:33 16° WNW 06:07:07 63° SSW 06:10:26 10° SE visible
02 Oct -3.8 05:14:46 62° N 05:15:08 71° NE 05:18:27 10° ESE visible
